User: anonymous
Location: Unspecified
(0.0000°N, 0.0000°E)
Time: 18:00:26
(UTC+02:00)
Language:

GPS 2-12 Rocket1 - Orbit

View from above orbital plane
View from above orbital plane
View from above satellite
View from above satellite

Ground track
Ground track

The orbit data is extracted from the following two-line orbital elements,

1 21891U 92009B   14105.49040456  .00002275  00000-0  23384-3 0  1771
2 21891 019.9963 186.3026 0049109 195.8066 164.0817 14.80656577194138
Epoch (UTC): 15 April 2014 11:46:10
Eccentricity: 0.0049109
inclination: 19.9963°
perigee height: 593 km
apogee height: 661 km
right ascension of ascending node: 186.3026°
argument of perigee: 195.8066°
revolutions per day: 14.80656577
mean anomaly at epoch: 164.0817°
orbit number at epoch: 19413

The dashed part of the orbit path shows where the satellite is in the earth's shadow,  

DLR